Terminal Aerodrome Forecast
Issued by NWS Miami, FL

Home | Current Version | Previous Version | Text Only | Print | Product List | Glossary On
Versions: 1 2 3 4 5 6 7 8 9 10 11 12 13 14 15 16 17 18 19 20 21 22 23 24 25
000
FTUS42 KMFL 191740
TAFAPF
TAF
KAPF 191740Z 1918/2018 28010KT P6SM SCT030
     FM192100 32006KT P6SM FEW040 SCT250
     FM200900 04003KT 6SM BR FEW250
     FM201400 08008KT P6SM SKC=

USA.gov is the U.S. government's official web portal to all federal, state and local government web resources and services.